Weather History for KGFK - September, 2013

Change the Weather History Date:

Sunday, September 1, 2013

  Actual Average Record
Temperature  
Mean Temperature 59 °F 63 °F  
Max Temperature 70 °F 76 °F 98 °F (1983)
Min Temperature 48 °F 50 °F 32 °F (1974)
Degree Days  
Heating Degree Days 6 4  
Month to date heating degree days 6 4  
Since 1 July heating degree days 88 86  
Cooling Degree Days 0 2  
Month to date cooling degree days 0 2  
Year to date cooling degree days 448 354  
Growing Degree Days 10 (Base 50)    
Moisture  
Dew Point 53 °F    
Average Humidity 69    
Maximum Humidity 93    
Minimum Humidity 44    
Precipitation  
Precipitation T in 0.08 in 1.67 in (2008)
Month to date precipitation T 0.08  
Year to date precipitation 14.23 15.31  
Snow  
Snow 0.00 in 0.00 in 0.00 in ()
Month to date snowfall 0.0 0.0  
Since 1 July snowfall 0.0 0.0  
Since 1 September snowfall 0.0 0.0  
Snow Depth 0.00 in    
Sea Level Pressure  
Sea Level Pressure 29.93 in    
Wind  
Wind Speed 13 mph (NNW)    
Max Wind Speed 24 mph    
Max Gust Speed 30 mph    
Visibility 10 miles    
Events Rain    
T = Trace of Precipitation, MM = Missing Value Source: NWS Daily Summary

Daily Weather History Graph

Daily Weather History Graph

Search for Another Location

Airport or City:

Trip Planner

Search our weather history database for the weather conditions in past years. The results will help you decide how hot, cold, wet, or windy it might be!

Date:

Astronomy

Sep. 01, 2013 Rise Set
Actual Time 6:47 AM CDT 8:09 PM CDT
Civil Twilight 6:15 AM CDT 8:41 PM CDT
Nautical Twilight 5:36 AM CDT 9:19 PM CDT
Astronomical Twilight 4:54 AM CDT 10:01 PM CDT
Moon 2:59 AM CDT (9/1) 5:55 PM CDT (9/1)
Length of Visible Light 14h 26m
Length of Day
13h 21m
Waning Crescent, 13% of the Moon is Illuminated
Sep 1
Waning Crescent
Sep 5
New
Sep 12
First Quarter
Sep 19
Full
Sep 26
Last Quarter

Hourly Weather History & Observations

Time (CDT) Temp. Dew Point Humidity Pressure Visibility Wind Dir Wind Speed Gust Speed Precip Events Conditions
12:51 AM 62.6 °F 60.8 °F 94% 29.80 in 10.0 mi WNW 9.2 mph - N/A   Mostly Cloudy
12:53 AM 63.0 °F 60.1 °F 90% 29.80 in 10.0 mi WNW 10.4 mph - N/A   Mostly Cloudy
1:30 AM 64.4 °F 60.8 °F 88% 29.81 in 10.0 mi NW 9.2 mph - N/A   Overcast
1:42 AM 64.4 °F 60.8 °F 88% 29.81 in 10.0 mi NNW 11.5 mph 21.9 mph N/A   Overcast
1:53 AM 64.0 °F 59.0 °F 84% 29.81 in 10.0 mi NNW 15.0 mph 24.2 mph N/A   Overcast
2:53 AM 62.1 °F 57.9 °F 86% 29.83 in 10.0 mi NNW 15.0 mph 23.0 mph N/A   Overcast
3:49 AM 60.8 °F 57.2 °F 88% 29.85 in 5.0 mi NNW 15.0 mph - 0.00 in Rain Light Rain
3:53 AM 60.1 °F 57.9 °F 93% 29.85 in 5.0 mi NNW 15.0 mph - 0.00 in Rain Light Rain
4:08 AM 59.0 °F 57.2 °F 94% 29.85 in 10.0 mi NNW 15.0 mph 20.7 mph 0.00 in   Overcast
4:19 AM 57.2 °F 55.4 °F 94% 29.86 in 10.0 mi NNW 17.3 mph 24.2 mph 0.00 in   Overcast
4:53 AM 57.9 °F 55.0 °F 90% 29.86 in 10.0 mi NNW 13.8 mph 21.9 mph 0.00 in   Overcast
5:31 AM 57.2 °F 53.6 °F 88% 29.88 in 10.0 mi NNW 15.0 mph 23.0 mph N/A   Overcast
5:45 AM 57.2 °F 53.6 °F 88% 29.88 in 10.0 mi North 15.0 mph 20.7 mph N/A   Overcast
5:53 AM 57.9 °F 53.1 °F 84% 29.88 in 10.0 mi North 18.4 mph 25.3 mph N/A   Overcast
6:53 AM 55.9 °F 51.1 °F 84% 29.91 in 10.0 mi NNW 21.9 mph 29.9 mph N/A   Overcast
7:53 AM 55.9 °F 52.0 °F 87% 29.93 in 10.0 mi NNW 17.3 mph 24.2 mph N/A   Overcast
8:13 AM 55.4 °F 51.8 °F 88% 29.93 in 10.0 mi NNW 16.1 mph - N/A   Overcast
8:53 AM 57.0 °F 52.0 °F 83% 29.94 in 10.0 mi NNW 18.4 mph 25.3 mph 0.00 in   Mostly Cloudy
9:14 AM 57.2 °F 53.6 °F 88% 29.95 in 10.0 mi NNW 18.4 mph 24.2 mph 0.00 in   Overcast
9:53 AM 57.0 °F 53.1 °F 87% 29.98 in 10.0 mi NNW 15.0 mph 25.3 mph 0.00 in   Mostly Cloudy
10:39 AM 57.2 °F 51.8 °F 82% 29.98 in 10.0 mi North 18.4 mph - 0.00 in   Mostly Cloudy
10:53 AM 57.0 °F 52.0 °F 83% 29.99 in 10.0 mi North 17.3 mph 21.9 mph 0.00 in   Overcast
11:31 AM 59.0 °F 51.8 °F 77% 29.99 in 10.0 mi North 18.4 mph - N/A   Overcast
11:53 AM 59.0 °F 51.1 °F 75% 30.00 in 10.0 mi NNW 16.1 mph 24.2 mph N/A   Overcast
12:53 PM 63.0 °F 51.1 °F 65% 29.99 in 10.0 mi North 15.0 mph - N/A   Mostly Cloudy
1:14 PM 66.2 °F 51.8 °F 60% 29.99 in 10.0 mi North 13.8 mph 21.9 mph N/A   Scattered Clouds
1:53 PM 66.9 °F 50.0 °F 54% 30.00 in 10.0 mi North 16.1 mph 21.9 mph N/A   Scattered Clouds
2:53 PM 68.0 °F 48.9 °F 50% 30.00 in 10.0 mi NNW 13.8 mph - N/A   Partly Cloudy
3:53 PM 69.1 °F 48.9 °F 49% 29.99 in 10.0 mi North 15.0 mph 26.5 mph N/A   Partly Cloudy
4:53 PM 70.0 °F 48.9 °F 47% 29.99 in 10.0 mi North 15.0 mph 20.7 mph N/A   Clear
5:53 PM 69.1 °F 46.9 °F 45% 30.00 in 10.0 mi North 15.0 mph 20.7 mph N/A   Clear
6:53 PM 66.9 °F 46.9 °F 49% 30.00 in 10.0 mi North 11.5 mph - N/A   Clear
7:53 PM 61.0 °F 48.0 °F 62% 30.01 in 10.0 mi North 5.8 mph - N/A   Clear
8:53 PM 53.1 °F 48.0 °F 83% 30.03 in 10.0 mi North 5.8 mph - N/A   Clear
9:53 PM 51.1 °F 46.0 °F 83% 30.04 in 10.0 mi North 4.6 mph - N/A   Clear
10:53 PM 50.0 °F 46.0 °F 86% 30.05 in 10.0 mi NNE 5.8 mph - N/A   Clear
11:53 PM 54.0 °F 48.0 °F 80% 30.05 in 10.0 mi ENE 4.6 mph - N/A   Clear